Location: Newark
(34.5992°S, 58.3747°W)
Time: 20:47:46
(UTC+00:00)

LightSail 2 - Visible Passes

Search period start: 08 December 2019 00:00
Search period end: 18 December 2019 00:00
Orbit: 696 x 730 km, 24.0° (Epoch: 07 December)

Date Brightness Start Highest point End Pass type
(mag) Time Alt. Az. Time Alt. Az. Time Alt. Az.
08 Dec 6.6 07:07:20 18° N 07:08:44 20° N 07:12:26 10° ENE visible
09 Dec 7.2 06:12:41 14° NE 06:12:41 14° NE 06:14:07 10° NE visible
09 Dec 6.4 07:51:38 10° NW 07:55:44 24° N 07:59:52 10° NE visible
10 Dec 6.4 06:57:01 22° N 06:57:48 23° N 07:01:49 10° ENE visible
11 Dec 7.2 06:02:27 15° NE 06:02:27 15° NE 06:03:40 10° ENE visible
11 Dec 6.4 07:41:24 13° NW 07:44:48 24° N 07:48:55 10° NE visible
12 Dec 6.3 06:46:53 24° N 06:46:53 24° N 06:50:57 10° NE visible
13 Dec 7.4 05:52:25 12° NE 05:52:25 12° NE 05:52:56 10° ENE visible
13 Dec 6.4 07:31:24 16° NW 07:33:50 22° N 07:37:43 10° NE visible
14 Dec 6.5 06:37:03 22° NNE 06:37:03 22° NNE 06:39:53 10° NE visible
15 Dec 6.6 07:21:50 17° NNW 07:22:48 18° NNW 07:26:11 10° NNE visible
16 Dec 7.2 06:27:45 13° NNE 06:27:45 13° NNE 06:28:33 10° NE visible
16 Dec 7.1 08:09:00 10° NNW 08:09:38 10° NNW 08:10:16 10° NNW visible
17 Dec 7.0 07:12:51 12° N 07:12:51 12° N 07:14:04 10° N visible
